Location: Conover
(35.7170°N, 81.2250°W)
Time: 16:50:23
(UTC-05:00)

Daily predictions for brighter satellites

Satellite Brightness Start Highest point End
(mag) Time Altitude Azimuth Time Altitude Azimuth Time Altitude Azimuth
Hubble Space Telescope 3.0 17:32:03 10° WSW 17:35:21 23° SSW 17:38:39 10° SE
Cosmos 1536 2.8 17:33:08 10° N 17:37:12 72° E 17:41:15 10° SSE
Cosmos 2263 Rocket 4.1 17:32:37 10° WSW 17:37:13 26° WNW 17:41:52 10° N
Meteor 1-11 Rocket 4.4 17:38:50 10° NNW 17:44:18 60° W 17:49:41 10° S
ISS -2.4 17:42:20 10° WSW 17:45:29 42° NW 17:48:39 10° NE
Cosmos 1633 3.9 17:46:22 10° NNW 17:49:47 44° W 17:53:12 10° SSW
MSX 4.1 17:46:06 10° SE 17:51:33 46° ENE 17:57:00 10° N
Cosmos 1461 4.0 17:48:45 10° NW 17:52:32 46° WSW 17:56:20 10° S
Cosmos 1812 3.3 17:51:20 10° SSE 17:54:54 37° E 17:58:29 10° NNE
Cosmos 1346 Rocket 4.3 17:52:40 10° SE 17:55:09 16° E 17:57:08 12° ENE
SL-27 R/B 3.3 17:52:51 10° N 17:56:10 31° ENE 17:59:27 10° SE
SJ-12 3.9 17:52:51 10° SSE 17:56:56 88° ENE 18:01:03 10° NNW
CZ-4 R/B 1.8 17:55:13 10° S 17:59:23 71° WSW 18:03:33 10° NNW
Tiangong 1 3.1 17:58:54 10° S 18:00:49 16° SE 18:02:26 11° ESE
Cosmos 1844 Rocket 2.9 17:57:42 10° SSW 18:03:16 75° WNW 18:08:54 10° NNE
COSMO-SKYMED 1 3.1 17:59:25 10° NNE 18:03:30 39° E 18:07:33 10° SSE
Cosmos 1544 Rocket 3.6 18:00:10 10° N 18:04:34 57° E 18:08:57 10° SSE
Cosmos 1975 Rocket 4.0 18:00:24 10° SSW 18:04:34 50° W 18:08:47 10° N
Cosmos 158 Rocket 4.0 17:59:33 10° NNW 18:04:57 90° ENE 18:10:10 10° SSE
GEOS 3 Rocket 4.3 18:01:22 10° ESE 18:05:49 31° NE 18:10:17 10° NNW
CZ-2C R/B 2.5 18:01:08 10° S 18:06:00 84° WSW 18:11:06 10° NNW
Cosmos 1238 Rocket 1.9 18:07:01 10° S 18:10:01 72° E 18:12:58 10° N
MONITOR-E 4.4 18:07:37 10° SSE 18:10:41 48° ENE 18:13:47 10° N
Cosmos 1844 3.7 18:07:56 10° SSW 18:13:30 83° WNW 18:19:06 10° NNE
Meteor 1-12 Rocket 4.4 18:07:58 10° N 18:13:35 51° ENE 18:19:17 10° SSE
CZ-3A R/B 4.3 18:10:34 10° W 18:15:26 38° N 18:35:18 11° NE
OPS 8737 4.4 18:13:03 10° SW 18:16:33 77° WNW 18:18:56 17° NNE
Cosmos 1975 3.3 18:14:33 10° N 18:18:22 36° E 18:22:06 10° SSE
Cosmos 1536 Rocket 3.5 18:16:38 10° S 18:21:02 70° E 18:25:29 10° NNE
CORIOLIS 4.5 18:15:42 10° S 18:21:06 72° WSW 18:26:31 10° NNW
COSMOS 2441 4.3 18:16:48 10° SSE 18:21:37 73° ENE 18:26:30 10° N
SPOT 3 Rocket 4.4 18:19:33 10° S 18:24:37 53° W 18:29:42 10° NNW
SMAP 4.1 18:22:03 10° S 18:26:32 48° W 18:31:03 10° NNW
YAOGAN 1 3.7 18:23:51 10° S 18:28:00 47° W 18:32:11 10° NNW
SL-24 DEB 4.2 18:24:10 10° N 18:28:56 83° E 18:33:38 10° S
Cosmos 2278 Rocket 2.1 18:25:36 10° SSW 18:31:14 82° ESE 18:36:35 12° NNE
COSMOS 2406 4.3 18:30:28 10° NW 18:35:55 47° WSW 18:41:23 10° S
IDEFIX/ARIANE 42P 4.0 18:36:11 10° SSW 18:41:01 39° W 18:45:52 10° NNW
Meteor 1-13 Rocket 4.3 18:35:59 10° SSE 18:41:23 51° E 18:46:05 14° NNE
Cosmos 1484 Rocket 2.9 18:41:18 10° S 18:45:04 69° W 18:48:48 10° NNW
Okean 1-7 Rocket 3.9 18:41:40 10° SSE 18:45:58 44° E 18:46:43 40° ENE
Cosmos 2366 rocket 4.4 18:40:21 10° NNW 18:46:39 67° W 18:52:52 10° S
Cosmos 921 Rocket 3.6 18:45:13 10° SSE 18:48:30 36° ESE 18:48:30 36° ESE
CZ-3B DEB 3.2 18:45:28 10° W 18:49:13 40° NNW 18:55:17 17° NE
OTV 4 1.0 18:46:32 10° W 18:49:27 49° SSW 18:49:39 48° S
SKYMED 2 4.2 18:47:20 10° N 18:51:34 54° WNW 18:55:48 10° SSW
Cosmos 1455 Rocket 4.1 18:50:00 10° NNW 18:54:13 47° W 18:58:27 10° SSW
Timation 2 Rocket 4.5 18:51:25 10° N 18:57:52 43° ENE 18:59:43 36° E
Cosmos 2082 Rocket 3.2 18:54:24 10° N 18:57:45 28° NNE 18:57:45 28° NNE
Cosmos 1241 Rocket 4.5 18:55:27 10° NNW 19:02:04 67° ENE 19:07:28 16° SE
NOSS 3-3 (A) 4.4 18:59:20 10° SW 19:05:24 60° NW 19:09:41 22° NNE
NOSS 3-3 (C) 4.4 18:59:26 10° SW 19:05:29 60° NW 19:09:45 22° NNE
Cosmos 1833 Rocket 4.1 19:00:30 10° N 19:02:46 21° NNE 19:02:46 21° NNE
Delta 2 Rocket 3.9 19:01:46 10° SW 19:05:39 46° SSE 19:05:41 46° SSE
SL-8 R/B 4.3 19:03:28 10° WSW 19:08:04 47° NNW 19:09:02 41° N
Cosmos 1500 4.0 19:09:47 10° NNW 19:13:29 50° W 19:17:12 10° S
Cosmos 2239 Rocket 4.4 19:07:40 10° N 19:13:50 62° E 19:19:55 10° SSE
NOAA 12 4.0 19:08:52 10° SSE 19:14:10 87° WSW 19:19:28 10° NNW
METEOR-M 4.0 19:09:37 10° SSE 19:14:57 80° ENE 19:20:18 10° N
Meteor 1-28 Rocket 4.3 19:15:04 30° NNW 19:16:22 42° WNW 19:19:58 10° SW
ATLAS 2AS CENTAUR R/B 3.3 19:09:28 10° NW 19:17:22 65° WSW 19:24:38 10° SSE
Meteor 2-4 Rocket 3.8 19:13:32 10° S 19:18:00 54° SE 19:18:00 54° SE
Cosmos 1821 Rocket 3.8 19:16:06 10° N 19:22:12 70° E 19:28:15 10° SSE
Tiangong 1 4.4 19:33:44 10° WSW 19:34:09 13° WSW 19:34:09 13° WSW
ATLAS 3B CENTAUR R/B 3.3 19:46:48 10° W 19:59:51 49° S 20:00:11 49° S
FALCON 9 R/B 3.4 20:14:39 10° W 20:26:28 57° W 20:26:28 57° W
